Weather History for Saginaw, MI

Change the Weather History Date:

Thursday, June 28, 2012

  Actual Average Record
Temperature  
Mean Temperature 83 °F 70 °F  
Max Temperature 97 °F 81 °F 97 °F (2012)
Min Temperature 70 °F 59 °F 53 °F (2000)
Degree Days  
Heating Degree Days 0    
Month to date heating degree days  
Since 1 June heating degree days  
Since 1 July heating degree days  
Cooling Degree Days 18    
Month to date cooling degree days  
Year to date cooling degree days  
Since 1 June cooling degree days  
Growing Degree Days 33 (Base 50)    
Moisture  
Dew Point 63 °F    
Average Humidity 53    
Maximum Humidity 69    
Minimum Humidity 43    
Precipitation  
Precipitation 0.00 in 0.10 in 0.19 in (2013)
Month to date precipitation 2.79  
Year to date precipitation 14.44  
Snow  
Snow 0.00 in - - ()
Month to date snowfall  
Since 1 June snowfall  
Since 1 July snowfall  
Snow Depth -    
Sea Level Pressure  
Sea Level Pressure 29.73 in    
Wind  
Wind Speed 8 mph (WSW)    
Max Wind Speed 15 mph    
Max Gust Speed 21 mph    
Visibility 10 miles    
Events      
T = Trace of Precipitation, MM = Missing Value Source: NWS Daily Summary

Daily Weather History Graph

Daily Weather History Graph

Search for Another Location

Airport:

Trip Planner

Search our weather history database for the weather conditions in past years. The results will help you decide how hot, cold, wet, or windy it might be!

Date:

Astronomy

Jun. 28, 2012 Rise Set
Actual Time 5:57 AM EDT 9:21 PM EDT
Civil Twilight 5:22 AM EDT 9:57 PM EDT
Nautical Twilight 4:35 AM EDT 10:43 PM EDT
Astronomical Twilight 3:36 AM EDT 11:42 PM EDT
Moon 3:49 PM EDT (6/28) 1:36 AM EDT (6/28)
Length of Visible Light 16h 35m
Length of Day
15h 23m
Waxing Gibbous, 67% of the Moon is Illuminated
Jun 28
Waxing Gibbous
Jul 3
Full
Jul 10
Last Quarter
Jul 19
New
Jul 26
First Quarter

Hourly Weather History & Observations

Time (EDT) Temp. Heat Index Dew Point Humidity Pressure Visibility Wind Dir Wind Speed Gust Speed Precip Events Conditions
12:53 AM 73.0 °F - 54.0 °F 51% 29.81 in 10.0 mi SSW 5.8 mph - N/A   Clear
1:53 AM 71.1 °F - 54.0 °F 55% 29.79 in 10.0 mi SW 6.9 mph - N/A   Clear
2:53 AM 71.1 °F - 53.1 °F 53% 29.77 in 10.0 mi SSW 6.9 mph - N/A   Clear
3:53 AM 70.0 °F - 53.1 °F 55% 29.74 in 10.0 mi SW 6.9 mph - N/A   Clear
4:53 AM 70.0 °F - 53.1 °F 55% 29.76 in 10.0 mi WSW 8.1 mph - N/A   Clear
5:53 AM 70.0 °F - 53.1 °F 55% 29.76 in 10.0 mi WSW 5.8 mph - N/A   Clear
6:53 AM 70.0 °F - 54.0 °F 57% 29.75 in 10.0 mi SW 8.1 mph - N/A   Clear
7:53 AM 72.0 °F - 55.9 °F 57% 29.76 in 10.0 mi SW 8.1 mph - N/A   Clear
8:53 AM 75.0 °F - 57.0 °F 53% 29.74 in 10.0 mi SW 8.1 mph - N/A   Clear
9:53 AM 79.0 °F - 61.0 °F 54% 29.74 in 10.0 mi WSW 5.8 mph - N/A   Clear
10:53 AM 82.0 °F 83.0 °F 62.1 °F 51% 29.74 in 10.0 mi WSW 6.9 mph - N/A   Clear
11:53 AM 86.0 °F 87.6 °F 64.9 °F 49% 29.74 in 10.0 mi SSW 8.1 mph - N/A   Clear
12:53 PM 90.0 °F 92.4 °F 66.0 °F 45% 29.73 in 10.0 mi WSW 6.9 mph - N/A   Clear
1:53 PM 91.9 °F 95.4 °F 66.9 °F 44% 29.70 in 10.0 mi SSW 5.8 mph - N/A   Clear
2:53 PM 93.9 °F 98.6 °F 68.0 °F 43% 29.69 in 10.0 mi SW 11.5 mph 16.1 mph N/A   Clear
3:53 PM 96.1 °F 102.9 °F 70.0 °F 43% 29.69 in 10.0 mi West 11.5 mph 20.7 mph N/A   Clear
4:53 PM 93.9 °F 100.8 °F 71.1 °F 47% 29.69 in 10.0 mi West 9.2 mph 18.4 mph N/A   Scattered Clouds
5:53 PM 95.0 °F 104.5 °F 73.0 °F 49% 29.66 in 10.0 mi NW 10.4 mph - N/A   Clear
6:53 PM 93.0 °F 100.7 °F 72.0 °F 50% 29.70 in 10.0 mi WNW 15.0 mph - N/A   Scattered Clouds
7:53 PM 91.0 °F 97.6 °F 71.1 °F 52% 29.69 in 10.0 mi NW 6.9 mph - N/A   Clear
8:53 PM 88.0 °F 94.7 °F 72.0 °F 59% 29.72 in 10.0 mi West 11.5 mph - N/A   Clear
9:53 PM 86.0 °F 90.7 °F 70.0 °F 59% 29.73 in 10.0 mi WNW 11.5 mph - N/A   Clear
10:53 PM 82.9 °F 87.0 °F 70.0 °F 65% 29.75 in 10.0 mi NW 8.1 mph - N/A   Clear
11:53 PM 80.1 °F 82.9 °F 69.1 °F 69% 29.78 in 10.0 mi WNW 6.9 mph - N/A   Clear